Flag for Germany Weather past 2 weeks in Velbert, North Rhine-Westphalia, Germany

Now
74 °F

Overcast.


Feels Like: 76 °F
Forecast: 57 / 72 °F
Wind: 3 mph from Southwest

Location: Essen

Current Time: Sep 19, 2014 at 6:06:49 PM

Latest Report: Sep 19, 2014 at 5:00 PM


Visibility: 14 mi

Pressure: 29.86 "Hg

Humidity: 69%

Dew point: 64 °F

Location of VelbertLocation

Historic Weather in Velbert — Graph

°F

Velbert temperature yesterday

Maximum temperature yesterday: 70 °F (at 4:00 PM)
Minimum temperature yesterday: 60 °F (at 7:00 AM)
Average temperature yesterday: 64 °F

Past Weeks' High & Low Weather Summary

 TemperatureHumidityPressure
High77 °F (Sep 17, 4:00 PM)100% (Sep 14, 6:00 AM)30.25 "Hg (Sep 14, 6:00 AM)
Low48 °F (Sep 12, 6:00 AM)49% (Sep 17, 6:00 PM)29.82 "Hg (Sep 19, 5:00 AM)
Average63 °F80%30.03 "Hg
* Reported Sep 4 5:00 PM — Sep 19 5:00 PM, Velbert, Weather by CustomWeather, © 2014

Note: Actual official high and low records may vary slightly from our data, if they occured in-between our weather recording intervals... More about our weather records

Advertising

Velbert weather history for previous 24 hours

 ConditionsComfort  
Time TempWeatherWind HumidityBarometerVisibility
5:00 PM
Sep 19
74 °FOvercast.3 mph69%29.86 "Hg14 mi
4:00 PM73 °FPassing clouds.3 mph71%29.87 "Hg12 mi
3:00 PM72 °FOvercast.3 mph72%29.87 "Hg10 mi
2:00 PM73 °FOvercast.3 mph73%29.87 "Hg14 mi
1:00 PM71 °FPartly sunny.3 mph77%29.87 "Hg14 mi
12:00 PM70 °FOvercast.3 mph75%29.86 "Hg16 mi
11:00 AM69 °FOvercast.3 mph77%29.87 "Hg16 mi
10:00 AMN/APassing clouds.N/AN/AN/A2 mi
9:00 AM63 °FOvercast.2 mph94%29.85 "Hg5 mi
8:00 AM62 °FOvercast.2 mph95%29.85 "Hg6 mi
7:00 AM62 °FPassing clouds.2 mph95%29.83 "Hg6 mi
6:00 AM62 °FPassing clouds.2 mph95%29.83 "Hg6 mi
5:00 AM63 °FPassing clouds.2 mph95%29.82 "Hg6 mi
4:00 AM60 °FFog.3 mph99%29.83 "Hg3 mi
3:00 AM62 °FOvercast.6 mph98%29.84 "Hg6 mi
2:00 AM62 °FOvercast.6 mph99%29.85 "Hg5 mi
1:00 AM61 °FLight rain. Low clouds.6 mph100%29.86 "Hg6 mi
12:00 AM61 °FRain. Low clouds.5 mph100%29.86 "Hg3 mi
11:00 PM
Sep 18
62 °FFog.5 mph99%29.88 "Hg1 mi
10:00 PM63 °FLight rain. Low clouds.5 mph96%29.85 "Hg9 mi
9:00 PM63 °FOvercast.5 mph93%29.85 "Hg14 mi
8:00 PM64 °FOvercast.5 mph92%29.84 "Hg19 mi
7:00 PM64 °FLight rain. Low clouds.3 mph93%29.84 "Hg4 mi
6:00 PM66 °FDrizzle. Overcast.5 mph91%29.84 "Hg12 mi
Weather by CustomWeather, © 2014

See weather overviewHow to use our weather pages